User: anonymous   Login
Location: Oshawa
(43.9000°N, 78.8670°W)
Time: 15:27:09
(UTC-04:00)
Language:

Cosmos 839 Rocket - Orbit

View from above orbital plane
View from above orbital plane
View from above satellite
View from above satellite

Ground track
Ground track

The orbit data is extracted from the following two-line orbital elements,

1  9013U 76067B   17115.36572166 -.00000054 +00000-0 +44604-6 0  9994
2  9013 065.8643 108.9678 0705429 093.8602 004.6985 12.35324009839888
Epoch (UTC): 25 April 2017 08:46:38
Eccentricity: 0.0705429
inclination: 65.8643°
perigee height: 969 km
apogee height: 2084 km
right ascension of ascending node: 108.9678°
argument of perigee: 93.8602°
revolutions per day: 12.35324009
mean anomaly at epoch: 4.6985°
orbit number at epoch: 83988

The dashed part of the orbit path shows where the satellite is in the earth's shadow,  

DLR